Location: De Har
(53.3413°N, 6.6858°E)
Time: 20:21:30
(UTC+00:00)

Cosmos-2242 - Pass Details

Date: 22 April 2026
Orbit: 564 x 589 km, 82.5° (Epoch: 21 May)

Event Time Altitude Azimuth Distance (km) Brightness Sun altitude
Exits shadow 00:52:23 52° 128° (SE) 732 3.2 -22.3°
Maximum altitude 00:52:55 57° 96° (E) 694 3.3 -22.3°
Drops below altitude 10° 00:57:03 10° 18° (NNE) 1,905 6.7 -22.0°
Sets 00:59:16 0° 15° (NNE) 2,805 7.9 -21.9°
